Norfolk, NE

9:24 AM CDT on June 26, 2017 (GMT -0500)
Stefan Memorial

Weather History for KOFK - April, 2013

Change the Weather History Date:

Tuesday, April 9, 2013

  Actual Average Record
Temperature  
Mean Temperature 37 °F 47 °F  
Max Temperature 46 °F 59 °F 89 °F (1930)
Min Temperature 27 °F 35 °F 8 °F (1928)
Degree Days  
Heating Degree Days 28 18  
Month to date heating degree days 167 177  
Since 1 July heating degree days 6080 6126  
Cooling Degree Days 0 0  
Month to date cooling degree days 0 0  
Year to date cooling degree days 0 0  
Moisture  
Dew Point 31 °F    
Average Humidity 91    
Maximum Humidity 96    
Minimum Humidity 85    
Precipitation  
Precipitation 1.75 in 0.08 in 1.75 in (2013)
Month to date precipitation 2.14 0.69  
Year to date precipitation 4.32 3.81  
Snow  
Snow 0.40 in 0.10 in - ()
Month to date snowfall 0.4 1.1  
Since 1 July snowfall 21.1 29.0  
Snow Depth 0.00 in    
Sea Level Pressure  
Sea Level Pressure 29.96 in    
Wind  
Wind Speed 21 mph (North)    
Max Wind Speed 37 mph    
Max Gust Speed 46 mph    
Visibility 4 miles    
Events Rain , Snow , Thunderstorm    
T = Trace of Precipitation, MM = Missing Value Source: NWS Daily Summary

Daily Weather History Graph

Daily Weather History Graph

Search for Another Location

Airport or City:

Trip Planner

Search our weather history database for the weather conditions in past years. The results will help you decide how hot, cold, wet, or windy it might be!

Date:

Astronomy

Apr. 09, 2013 Rise Set
Actual Time 6:58 AM CDT 8:04 PM CDT
Civil Twilight 6:29 AM CDT 8:33 PM CDT
Nautical Twilight 5:55 AM CDT 9:07 PM CDT
Astronomical Twilight 5:20 AM CDT 9:43 PM CDT
Moon 6:22 AM CDT (4/9) 7:41 PM CDT (4/9)
Length of Visible Light 14h 03m
Length of Day
13h 05m
Waning Crescent, 1% of the Moon is Illuminated
Apr 9
Waning Crescent
Apr 10
New
Apr 18
First Quarter
Apr 25
Full
May 2
Last Quarter

Hourly Weather History & Observations

Time (CDT) Temp. Windchill Dew Point Humidity Pressure Visibility Wind Dir Wind Speed Gust Speed Precip Events Conditions
12:03 AM 46.4 °F 38.1 °F 46.4 °F 100% - 4.0 mi NNE 24.2 mph 35.7 mph 0.00 in Rain Light Rain
12:20 AM 46.4 °F 37.9 °F 44.6 °F 93% - 4.0 mi NE 25.3 mph 32.2 mph 0.01 in Rain , Thunderstorm Light Rain
12:41 AM 46.4 °F 38.7 °F 44.6 °F 93% - 2.5 mi ENE 20.7 mph 28.8 mph 0.11 in Rain , Thunderstorm Heavy Rain
12:46 AM 46.4 °F 41.5 °F 44.6 °F 93% - 3.0 mi East 10.4 mph 26.5 mph 0.13 in Rain Rain
12:54 AM 46.4 °F 40.1 °F 44.6 °F 93% - 4.0 mi NE 15.0 mph 23.0 mph 0.13 in Rain , Thunderstorm Light Rain
12:56 AM 46.0 °F 40.6 °F 45.0 °F 96% - 4.0 mi NE 11.5 mph 23.0 mph 0.14 in Rain , Thunderstorm Rain
1:14 AM 46.4 °F 40.4 °F 44.6 °F 93% - 7.0 mi NNE 13.8 mph - 0.02 in Rain Light Rain
1:56 AM 45.0 °F 37.9 °F 43.0 °F 93% - 10.0 mi North 16.1 mph 21.9 mph 0.05 in Rain Light Rain
2:56 AM 44.1 °F 35.4 °F 42.1 °F 93% - 6.0 mi NNE 21.9 mph 33.4 mph 0.01 in Rain Rain
3:47 AM 42.8 °F 32.9 °F 39.2 °F 87% - 2.0 mi North 26.5 mph 35.7 mph 0.21 in Rain , Thunderstorm Heavy Thunderstorms and Rain
3:56 AM 42.1 °F 34.9 °F 39.9 °F 92% - 2.5 mi North 13.8 mph 32.2 mph 0.29 in Rain , Thunderstorm Rain
4:03 AM 42.8 °F 36.6 °F 39.2 °F 87% - 3.0 mi North 11.5 mph 20.7 mph 0.04 in Rain , Thunderstorm Heavy Rain
4:12 AM 42.8 °F 33.8 °F 39.2 °F 87% - 2.0 mi NNE 21.9 mph 32.2 mph 0.14 in Rain , Thunderstorm Heavy Thunderstorms and Rain
4:26 AM 41.0 °F 33.5 °F 39.2 °F 93% - 3.0 mi NNE 13.8 mph 25.3 mph 0.21 in Rain , Thunderstorm Rain
4:38 AM 41.0 °F 31.9 °F 39.2 °F 93% - 4.0 mi NE 19.6 mph 26.5 mph 0.28 in Rain , Thunderstorm Rain
4:53 AM 41.0 °F 34.3 °F 39.2 °F 93% - 4.0 mi North 11.5 mph - 0.33 in Rain Rain
4:56 AM 41.0 °F 33.1 °F 39.0 °F 93% - 5.0 mi North 15.0 mph 18.4 mph 0.33 in Rain , Thunderstorm Rain
5:16 AM 41.0 °F 31.4 °F 39.2 °F 93% - 3.0 mi North 21.9 mph 27.6 mph 0.09 in Rain Heavy Rain
5:20 AM 41.0 °F 30.5 °F 39.2 °F 93% - 3.0 mi NNE 26.5 mph 29.9 mph 0.09 in Rain Rain
5:28 AM 39.2 °F 27.8 °F 39.2 °F 100% - 6.0 mi NE 27.6 mph 33.4 mph 0.12 in Rain Light Rain
5:39 AM 39.2 °F 29.6 °F 37.4 °F 93% - 10.0 mi NNW 19.6 mph 32.2 mph 0.12 in Rain Light Rain
5:42 AM 39.2 °F 29.8 °F 37.4 °F 93% - 10.0 mi NNW 18.4 mph 27.6 mph 0.12 in Rain Light Rain
5:56 AM 39.9 °F 30.8 °F 37.9 °F 93% - 10.0 mi NNW 18.4 mph 27.6 mph 0.12 in   Overcast
6:22 AM 37.4 °F 26.6 °F 35.6 °F 93% - 10.0 mi NNW 21.9 mph 28.8 mph 0.01 in Rain Light Rain
6:56 AM 36.0 °F 23.9 °F 33.1 °F 89% - 10.0 mi North 25.3 mph 34.5 mph 0.01 in   Overcast
7:56 AM 34.0 °F 23.0 °F 32.0 °F 92% - 10.0 mi North 18.4 mph 31.1 mph N/A   Overcast
8:56 AM 34.0 °F 21.8 °F 32.0 °F 92% - 10.0 mi North 23.0 mph 29.9 mph N/A   Overcast
9:56 AM 34.0 °F 21.3 °F 32.0 °F 92% 29.90 in 4.0 mi North 25.3 mph 33.4 mph 0.00 in   Overcast
10:19 AM 33.8 °F 21.0 °F 32.0 °F 93% 29.89 in 2.0 mi North 25.3 mph 34.5 mph 0.00 in Snow Light Snow
10:33 AM 33.8 °F 22.5 °F 32.0 °F 93% 29.90 in 1.5 mi North 19.6 mph 35.7 mph 0.00 in Snow Light Snow
10:56 AM 34.0 °F 22.4 °F 32.0 °F 92% 29.93 in 1.5 mi North 20.7 mph 34.5 mph 0.00 in Snow Light Snow
11:16 AM 33.8 °F 20.8 °F 33.8 °F 100% 29.91 in 2.0 mi North 26.5 mph 34.5 mph 0.00 in   Overcast
11:47 AM 30.2 °F 18.1 °F 28.4 °F 93% 29.92 in 2.5 mi North 18.4 mph 31.1 mph 0.00 in Rain Light Freezing Rain
11:56 AM 30.9 °F 17.8 °F 28.9 °F 92% 29.96 in 2.5 mi North 23.0 mph 31.1 mph 0.00 in Rain Light Freezing Rain
12:03 PM 30.2 °F 16.5 °F 28.4 °F 93% 29.93 in 3.0 mi North 24.2 mph 31.1 mph 0.00 in Rain Light Freezing Rain
12:56 PM 30.0 °F 15.4 °F 28.0 °F 92% 30.02 in 3.0 mi North 27.6 mph 33.4 mph 0.00 in Rain Light Freezing Rain
1:09 PM 28.4 °F 13.5 °F 26.6 °F 93% 29.97 in 2.5 mi North 26.5 mph 33.4 mph N/A Snow Light Snow
1:21 PM 28.4 °F 14.1 °F 26.6 °F 93% 29.96 in 3.0 mi North 24.2 mph 34.5 mph 0.00 in Rain Light Freezing Rain
1:32 PM 28.4 °F 12.3 °F 26.6 °F 93% 29.89 in 3.0 mi North 32.2 mph 39.1 mph 0.00 in Snow Light Snow
1:56 PM 28.9 °F 14.5 °F 27.0 °F 92% 29.96 in 5.0 mi North 25.3 mph 35.7 mph 0.00 in Rain Light Freezing Rain
2:21 PM 28.4 °F 14.1 °F 26.6 °F 93% 29.93 in 2.5 mi North 24.2 mph 34.5 mph 0.00 in   Overcast
2:30 PM 28.4 °F 14.1 °F 26.6 °F 93% 29.93 in 1.5 mi North 24.2 mph 35.7 mph 0.00 in Snow Light Snow
2:54 PM 26.6 °F 11.1 °F 24.8 °F 93% 29.90 in 3.0 mi North 26.5 mph 36.8 mph 0.00 in   Overcast
2:56 PM 27.0 °F 10.8 °F 25.0 °F 92% 29.95 in 4.0 mi North 29.9 mph 35.7 mph 0.00 in   Overcast
3:10 PM 26.6 °F 17.5 °F 24.8 °F 93% 30.03 in 6.0 mi North 9.2 mph 28.8 mph 0.00 in   Overcast
3:17 PM 28.4 °F 13.3 °F 26.6 °F 93% 29.90 in 1.8 mi NNE 27.6 mph 39.1 mph 0.00 in   Overcast
3:24 PM 28.4 °F 13.3 °F 24.8 °F 86% 29.88 in 1.0 mi North 27.6 mph 46.0 mph 0.22 in Rain Light Freezing Rain
3:31 PM 28.4 °F 12.5 °F 24.8 °F 86% 29.88 in 2.0 mi North 31.1 mph 46.0 mph 0.24 in Snow Light Snow
3:40 PM 26.6 °F 9.8 °F 24.8 °F 93% 29.88 in 3.0 mi North 32.2 mph 41.4 mph 0.24 in Snow Light Snow
3:46 PM 26.6 °F 10.6 °F 24.8 °F 93% 29.87 in 3.0 mi North 28.8 mph 39.1 mph 0.24 in   Overcast
3:56 PM 27.0 °F 13.5 °F 24.1 °F 89% 29.96 in 5.0 mi NNE 19.6 mph 38.0 mph 0.24 in   Overcast
4:04 PM 28.4 °F 14.4 °F 24.8 °F 86% 29.92 in 1.8 mi North 23.0 mph 32.2 mph 0.05 in   Overcast
4:11 PM 28.4 °F 15.1 °F 24.8 °F 86% 30.02 in 1.8 mi WNW 20.7 mph 29.9 mph 0.09 in Rain , Thunderstorm Light Freezing Rain
4:29 PM 28.4 °F 14.4 °F 24.8 °F 86% 29.97 in 1.8 mi NNW 23.0 mph 34.5 mph 0.20 in   Overcast
4:33 PM 26.6 °F 12.0 °F 24.8 °F 93% 29.95 in 2.5 mi NNW 23.0 mph 29.9 mph 0.20 in   Overcast
4:40 PM 26.6 °F 11.7 °F 24.8 °F 93% 29.96 in 4.0 mi NNW 24.2 mph 29.9 mph 0.20 in Snow , Thunderstorm Light Snow
4:47 PM 26.6 °F 11.7 °F 24.8 °F 93% 29.93 in 1.8 mi North 24.2 mph 31.1 mph 0.20 in Snow , Thunderstorm Light Snow
4:56 PM 27.0 °F 12.5 °F 24.1 °F 89% 29.97 in 2.0 mi North 23.0 mph 31.1 mph 0.20 in Snow Light Snow
5:06 PM 28.4 °F 15.1 °F 24.8 °F 86% 29.93 in 3.0 mi North 20.7 mph 29.9 mph 0.01 in Snow Light Snow
5:23 PM 28.4 °F 14.4 °F 26.6 °F 93% 29.92 in 2.5 mi North 23.0 mph 28.8 mph 0.01 in Snow Light Snow
5:33 PM 28.4 °F 15.1 °F 26.6 °F 93% 29.92 in 1.0 mi North 20.7 mph - 0.02 in Snow Light Snow
5:38 PM 26.6 °F 11.7 °F 24.8 °F 93% 29.92 in 0.8 mi North 24.2 mph 32.2 mph 0.02 in Snow Light Snow
5:45 PM 26.6 °F 11.7 °F 24.8 °F 93% 29.93 in 0.8 mi North 24.2 mph 32.2 mph 0.02 in Snow , Thunderstorm Light Snow
5:52 PM 26.6 °F 10.8 °F 24.8 °F 93% 30.09 in 1.0 mi West 27.6 mph 35.7 mph 0.02 in Snow , Thunderstorm Light Snow
5:56 PM 28.0 °F 14.9 °F 25.0 °F 88% 30.08 in 1.8 mi NW 19.6 mph 35.7 mph 0.02 in Snow , Thunderstorm Light Thunderstorms and Snow
6:03 PM 26.6 °F 9.1 °F 24.8 °F 93% 29.87 in 1.8 mi North 35.7 mph 44.9 mph 0.01 in   Overcast
6:10 PM 26.6 °F 11.4 °F 24.8 °F 93% 29.93 in 1.0 mi North 25.3 mph 44.9 mph 0.04 in   Overcast
6:17 PM 26.6 °F 11.7 °F 24.8 °F 93% 29.95 in 1.0 mi NNW 24.2 mph 39.1 mph 0.04 in   Overcast
6:25 PM 28.4 °F 15.4 °F 24.8 °F 86% 29.99 in 3.0 mi NNW 19.6 mph 34.5 mph 0.04 in   Overcast
6:29 PM 26.6 °F 13.1 °F 24.8 °F 93% 29.98 in 2.5 mi NNW 19.6 mph 29.9 mph 0.06 in   Overcast
6:35 PM 26.6 °F 11.7 °F 24.8 °F 93% 29.96 in 1.5 mi North 24.2 mph 31.1 mph 0.07 in Rain , Thunderstorm Light Freezing Rain
6:42 PM 26.6 °F 13.1 °F 24.8 °F 93% 29.97 in 1.8 mi North 19.6 mph 31.1 mph 0.07 in Snow , Thunderstorm Light Thunderstorms and Snow
6:46 PM 26.6 °F 12.0 °F 24.8 °F 93% 29.96 in 3.0 mi North 23.0 mph 29.9 mph 0.07 in Snow , Thunderstorm Light Thunderstorms and Snow
6:56 PM 28.0 °F 14.9 °F 26.1 °F 92% 30.01 in 6.0 mi NNE 19.6 mph 31.1 mph 0.09 in   Overcast
7:05 PM 28.4 °F 14.4 °F 26.6 °F 93% 29.92 in 4.0 mi NNE 23.0 mph 31.1 mph 0.01 in Rain , Thunderstorm Light Freezing Rain
7:09 PM 28.4 °F 12.7 °F 26.6 °F 93% 29.89 in 3.0 mi NNE 29.9 mph 38.0 mph 0.01 in Rain , Thunderstorm Light Freezing Rain
7:34 PM 30.2 °F 19.3 °F 28.4 °F 93% 29.98 in 4.0 mi North 15.0 mph 31.1 mph 0.11 in Rain , Thunderstorm Light Freezing Rain
7:56 PM 30.9 °F 18.1 °F 28.9 °F 92% 30.00 in 4.0 mi North 21.9 mph - 0.15 in Rain , Thunderstorm Light Freezing Rain
8:10 PM 30.2 °F 18.9 °F 28.4 °F 93% 29.98 in 5.0 mi North 16.1 mph - 0.04 in Rain Light Freezing Rain
8:20 PM 30.2 °F 17.8 °F 28.4 °F 93% 29.95 in 5.0 mi North 19.6 mph 29.9 mph 0.04 in Rain Light Freezing Rain
8:29 PM 30.2 °F 18.1 °F 28.4 °F 93% 30.02 in 5.0 mi WNW 18.4 mph - 0.07 in Rain Light Freezing Rain
8:36 PM 30.2 °F 20.8 °F 28.4 °F 93% 29.99 in 5.0 mi North 11.5 mph 28.8 mph 0.08 in Rain , Thunderstorm Light Freezing Rain
8:56 PM 32.0 °F 19.2 °F 30.0 °F 92% 30.04 in 4.0 mi North 23.0 mph 28.8 mph 0.16 in Rain Light Freezing Rain
9:16 PM 30.2 °F 20.8 °F 28.4 °F 93% 30.02 in 6.0 mi NNW 11.5 mph - 0.05 in Rain Light Freezing Rain
9:26 PM 30.2 °F 17.4 °F 28.4 °F 93% 29.94 in 5.0 mi North 20.7 mph - 0.07 in Rain Light Freezing Rain
9:29 PM 30.2 °F 17.1 °F 28.4 °F 93% 29.96 in 5.0 mi NNW 21.9 mph 27.6 mph 0.07 in Snow Light Snow
9:43 PM 30.2 °F 20.2 °F 28.4 °F 93% 30.02 in 8.0 mi NNW 12.7 mph 20.7 mph 0.08 in   Overcast
9:56 PM 30.9 °F 18.1 °F 28.9 °F 92% 30.06 in 8.0 mi North 21.9 mph 26.5 mph 0.08 in   Overcast
10:37 PM 28.4 °F 16.6 °F 26.6 °F 93% 30.03 in 10.0 mi NNW 16.1 mph - 0.00 in   Overcast
10:56 PM 28.0 °F 14.6 °F 25.0 °F 88% 30.04 in 10.0 mi North 20.7 mph - 0.00 in   Overcast
11:56 PM 27.0 °F 13.9 °F 25.0 °F 92% 30.06 in 6.0 mi North 18.4 mph - N/A   Overcast